[[{"header":{"parameterUnit":"m.s-1","parameterCategory":1,"la1":30.2991,"la2":30.254,"lo1":-89.0895,"lo2":-89.0444,"dy":0.0017,"dx":0.0017,"nx":28,"ny":28,"refTime":"2023-10-13T21:00:00:Z","depth":0,"parameterNumber":2,"parameterNumberName":"U-component_of_WINDS"},"data":[0,0,0,0,0,0,0,0,0,0,0,0,0,0,0,0,0,0,0,0,0,0,0,0,0,0,0,0,0,0,0,0,0,0,0,0,0,0,0,0,0,0,0,0,0,0,0,0,0,0,0,0,0,0,0,0,0,0,2.6331,2.6331,0,2.6324,2.6324,2.6324,2.6282,2.6281,2.628,2.6279,2.6272,2.6272,2.6273,0,0,0,0,0,0,0,0,0,0,0,0,0,2.6312,2.6313,2.6331,2.6331,2.6331,2.6324,2.6324,2.6324,2.6282,2.6281,2.628,2.6279,2.6271,2.6272,2.6273,0,0,0,0,0,0,0,0,0,0,0,0,0,2.6314,2.6313,2.6331,2.631,2.6308,2.6324,2.6324,2.6324,2.6283,2.6281,2.628,2.6278,2.6271,2.6272,2.6273,2.6309,0,0,2.6276,2.6277,0,0,0,0,0,0,0,0,2.6314,2.6315,2.6313,2.6311,2.6309,2.6302,2.6314,2.6319,2.6283,2.6292,2.6279,2.6278,2.6283,2.6283,2.6285,2.6309,2.6309,2.6276,2.6277,2.6278,2.6278,0,0,0,0,0,0,0,2.6314,2.6315,2.6328,2.6313,2.6311,2.6301,2.63,2.6315,2.6296,2.6291,2.6288,2.6288,2.6282,2.6284,2.6284,2.6309,2.6276,2.6277,2.6278,2.6278,2.6365,2.6366,0,0,0,0,0,0,2.6317,2.6315,2.6329,2.6328,2.6308,2.6303,2.6301,2.6306,2.6296,2.6293,2.6289,2.6286,2.6283,2.6283,2.6284,2.6327,2.6278,2.6279,2.6279,2.6363,2.6365,2.6367,0,0,0,0,0,0,2.6316,2.6318,2.6329,2.6321,2.6321,2.6304,2.631,2.6307,2.6309,2.6294,2.6291,2.6295,2.6282,2.6282,2.6304,2.6326,2.6279,2.628,2.6361,2.6364,2.6366,2.6413,0,0,0,0,0,0,2.6316,2.6318,2.6331,2.6321,2.6322,2.6349,2.6312,2.6308,2.6311,2.6307,2.6298,2.6296,2.6281,2.6303,2.6305,2.6327,2.6281,2.6359,2.6362,2.6365,2.641,2.6417,2.6423,0,0,0,0,0,2.6315,2.6344,2.6332,2.6334,2.6338,2.635,2.635,2.6332,2.6313,2.6326,2.6317,2.6296,2.6324,2.6305,2.6307,2.633,2.6358,2.6361,2.6365,2.6406,2.6416,2.6423,0,0,0,0,0,0,2.6357,2.6343,2.6329,2.6355,2.6354,2.6343,2.6359,2.6342,2.6346,2.6342,2.6319,2.6318,2.6343,2.6339,2.6318,2.6366,2.6337,2.6342,2.6368,2.6376,2.6383,2.6384,2.6282,0,0,0,0,0,2.6369,2.638,2.6367,2.6392,2.6392,2.6376,2.638,2.6367,2.6365,2.6364,2.6356,2.6355,2.6364,2.637,2.6377,2.6409,2.6408,2.6426,2.6433,2.6439,2.6443,2.6461,2.647,2.6379,2.6379,2.6379,0,0,2.6394,2.6388,2.6396,2.64,2.6397,2.641,2.6375,2.6389,2.6399,2.6366,2.6386,2.6381,2.6378,2.6406,2.6418,2.6403,2.6468,2.6443,2.6448,2.6449,2.6466,2.6475,2.6482,2.6382,2.6381,2.6381,0,0,2.6447,2.6442,2.6463,2.6462,2.6459,2.6449,2.6454,2.6446,2.6441,2.6462,2.6438,2.6449,2.6464,2.6464,2.6465,2.6521,2.6502,2.6524,2.656,2.6579,2.6586,2.6592,2.6613,2.6621,2.6528,2.6528,2.6528,0,2.6478,2.6495,2.6476,2.6493,2.6496,2.6468,2.649,2.6489,2.6489,2.6492,2.6476,2.6495,2.6491,2.652,2.6534,2.6536,2.6542,2.6525,2.6586,2.6592,2.6598,2.6618,2.6626,2.6531,2.6531,2.653,2.653,0,2.6535,2.6548,2.6565,2.6567,2.6572,2.6591,2.6576,2.6583,2.657,2.6562,2.6584,2.6579,2.6585,2.6591,2.6578,2.6618,2.661,2.659,2.6561,2.661,2.6628,2.6635,2.6535,2.6534,2.6533,2.6532,0,0,2.6612,2.6604,2.6611,2.6612,2.6608,2.6618,2.6636,2.6643,2.6651,2.6652,2.6668,2.6683,2.6666,2.6668,2.6655,2.6671,2.6718,2.665,2.6649,2.6663,2.6764,2.6779,2.6788,2.6706,2.6707,2.6708,2.6765,0,2.6663,2.6694,2.6678,2.6712,2.6724,2.6699,2.6716,2.6716,2.6709,2.6719,2.6712,2.6723,2.6699,2.6701,2.6716,2.6709,2.6738,2.6704,2.6721,2.6722,2.6723,2.6797,2.6813,2.6866,2.6772,2.6773,2.6774,0,2.6726,2.6731,2.6766,2.6762,2.6767,2.6782,2.6788,2.6798,2.6798,2.6792,2.6796,2.678,2.6799,2.6771,2.6798,2.6776,2.6782,2.678,2.6782,2.6782,2.6751,2.6801,2.6883,2.6891,2.6784,2.6784,2.6783,0,2.678,2.6795,2.6819,2.682,2.6816,2.6828,2.6826,2.6825,2.6831,2.6837,2.6841,2.6849,2.6853,2.686,2.6847,2.6827,2.6877,2.6846,2.6873,2.6874,2.6885,2.6884,2.6969,2.6888,2.6888,2.6888,2.6888,0,2.6839,2.6861,2.6843,2.6858,2.6883,2.6866,2.6891,2.6887,2.6887,2.6901,2.688,2.6894,2.6875,2.6888,2.6878,2.6903,2.6905,2.6902,2.6899,2.6904,2.6904,2.6907,2.6904,2.689,2.6889,2.6889,2.6889,0,2.6903,2.6891,2.6915,2.691,2.6909,2.6928,2.6924,2.6938,2.6931,2.6949,2.6952,2.6941,2.6955,2.6943,2.6956,2.6949,2.6983,2.6974,2.6983,2.6981,2.7009,2.7007,2.7099,2.7111,2.7022,2.7023,2.7023,0,2.6941,2.6958,2.6955,2.6963,2.6963,2.6976,2.6983,2.6967,2.6975,2.6978,2.6992,2.7004,2.7013,2.7037,2.703,2.7041,2.7033,2.7064,2.7034,2.7039,2.7034,2.7034,2.7036,2.7071,2.7072,2.7072,2.7073,0,2.7011,2.7005,2.7015,2.7024,2.7032,2.7039,2.7043,2.7051,2.7035,2.7046,2.706,2.7067,2.7081,2.7094,2.7103,2.7102,2.7086,2.7083,2.709,2.7095,2.71,2.7099,2.7,2.7081,2.708,2.7079,2.7079,2.7079,2.7064,2.7078,2.7079,2.7092,2.7094,2.7099,2.7113,2.7108,2.712,2.713,2.7121,2.7138,2.714,2.7151,2.7153,2.7167,2.7154,2.7163,2.7166,2.7169,2.7174,2.7098,2.7168,2.7168,2.7168,2.7168,2.7167,0,2.7133,2.7133,2.7145,2.7153,2.7163,2.7147,2.7152,2.7162,2.7178,2.7181,2.7191,2.7209,2.7222,2.7217,2.7229,2.7242,2.7235,2.7246,2.7245,2.7245,2.7184,2.7177,2.7251,2.7251,2.7251,2.7251,2.7251,2.7251,2.7171,2.7196,2.719,2.7217,2.7217,2.7234,2.7238,2.7244,2.7247,2.7267,2.7278,2.7276,2.7276,2.7289,2.7301,2.7299,2.7305,2.7319,2.7315,2.7257,2.7249,2.7241,2.7235,2.732,2.732,2.7375,2.7375,2.7376]},{"header":{"parameterUnit":"m.s-1","parameterCategory":1,"la1":30.2991,"la2":30.254,"lo1":-89.0895,"lo2":-89.0444,"dy":0.0017,"dx":0.0017,"nx":28,"ny":28,"refTime":"2023-10-13T21:00:00:Z","depth":0,"parameterNumber":3,"parameterNumberName":"V-component_of_WINDS"},"data":[0,0,0,0,0,0,0,0,0,0,0,0,0,0,0,0,0,0,0,0,0,0,0,0,0,0,0,0,0,0,0,0,0,0,0,0,0,0,0,0,0,0,0,0,0,0,0,0,0,0,0,0,0,0,0,0,0,0,-6.0253,-6.0254,0,-6.0326,-6.0327,-6.0328,-6.0318,-6.0317,-6.0315,-6.0314,-6.0384,-6.0387,-6.0389,0,0,0,0,0,0,0,0,0,0,0,0,0,-6.0103,-6.0105,-6.0253,-6.0254,-6.0255,-6.0326,-6.0327,-6.0328,-6.0318,-6.0316,-6.0315,-6.0314,-6.0383,-6.0386,-6.039,0,0,0,0,0,0,0,0,0,0,0,0,0,-6.0171,-6.0106,-6.0253,-6.0259,-6.026,-6.0326,-6.0327,-6.0328,-6.0318,-6.0316,-6.0315,-6.0313,-6.0382,-6.0386,-6.039,-6.0453,0,0,-6.0404,-6.0406,0,0,0,0,0,0,0,0,-6.0167,-6.0176,-6.0257,-6.0259,-6.026,-6.0311,-6.0299,-6.037,-6.0319,-6.0296,-6.0314,-6.0312,-6.0361,-6.0367,-6.0384,-6.0457,-6.046,-6.0404,-6.0407,-6.0409,-6.041,0,0,0,0,0,0,0,-6.0162,-6.0173,-6.0282,-6.0258,-6.026,-6.0257,-6.0264,-6.0313,-6.0337,-6.0298,-6.0297,-6.0306,-6.0361,-6.038,-6.0386,-6.0461,-6.0404,-6.0408,-6.0411,-6.0412,-6.0591,-6.0593,0,0,0,0,0,0,-6.0157,-6.0169,-6.028,-6.0284,-6.0208,-6.0261,-6.0269,-6.0296,-6.0337,-6.0341,-6.0308,-6.0306,-6.0373,-6.038,-6.0388,-6.0466,-6.0409,-6.0413,-6.0415,-6.0588,-6.0591,-6.0593,0,0,0,0,0,0,-6.0153,-6.0167,-6.0277,-6.0227,-6.024,-6.0265,-6.0296,-6.0299,-6.0318,-6.0344,-6.0348,-6.0323,-6.0372,-6.0382,-6.0438,-6.0468,-6.0415,-6.0419,-6.0586,-6.0589,-6.0592,-6.0621,0,0,0,0,0,0,-6.0149,-6.0165,-6.019,-6.0227,-6.0243,-6.0326,-6.0298,-6.0302,-6.0326,-6.0324,-6.0359,-6.0363,-6.0371,-6.0432,-6.0442,-6.0473,-6.0422,-6.0583,-6.0587,-6.0591,-6.0618,-6.0625,-6.0631,0,0,0,0,0,-6.0144,-6.0194,-6.0192,-6.0205,-6.0275,-6.0328,-6.0337,-6.0347,-6.0328,-6.0353,-6.0371,-6.0362,-6.0463,-6.0437,-6.045,-6.0482,-6.0582,-6.0586,-6.0591,-6.0615,-6.0624,-6.0631,0,0,0,0,0,0,-6.0157,-6.0199,-6.0197,-6.0261,-6.0291,-6.0326,-6.0358,-6.0355,-6.039,-6.0387,-6.0396,-6.0404,-6.0461,-6.0477,-6.0447,-6.0546,-6.052,-6.0527,-6.0534,-6.0542,-6.0549,-6.0544,-6.0426,0,0,0,0,0,-6.0168,-6.0209,-6.0243,-6.0296,-6.0312,-6.0333,-6.0356,-6.0361,-6.0392,-6.0405,-6.0426,-6.0456,-6.0494,-6.0519,-6.0556,-6.062,-6.0628,-6.0649,-6.0656,-6.0661,-6.0667,-6.0704,-6.0714,-6.0609,-6.0608,-6.0608,0,0,-6.019,-6.0218,-6.0243,-6.03,-6.0324,-6.0366,-6.0343,-6.0388,-6.0418,-6.0411,-6.0466,-6.0483,-6.0517,-6.0578,-6.0606,-6.0593,-6.0698,-6.0667,-6.0671,-6.0674,-6.071,-6.072,-6.0729,-6.0612,-6.0611,-6.0611,0,0,-6.0252,-6.0277,-6.0325,-6.0351,-6.0389,-6.0403,-6.0414,-6.0451,-6.0463,-6.0519,-6.0514,-6.055,-6.0616,-6.0641,-6.0662,-6.0736,-6.073,-6.0748,-6.0783,-6.0819,-6.0827,-6.0834,-6.0861,-6.0871,-6.0754,-6.0754,-6.0754,0,-6.0274,-6.0338,-6.0349,-6.0396,-6.0421,-6.0419,-6.0467,-6.0491,-6.0538,-6.0555,-6.0541,-6.0625,-6.0647,-6.0715,-6.0734,-6.0751,-6.0764,-6.0743,-6.0825,-6.0833,-6.084,-6.0866,-6.0876,-6.0756,-6.0756,-6.0755,-6.0755,0,-6.0363,-6.0408,-6.0442,-6.0491,-6.052,-6.0567,-6.0585,-6.0613,-6.0616,-6.0631,-6.0689,-6.0716,-6.0759,-6.0776,-6.0778,-6.0844,-6.0836,-6.0823,-6.0796,-6.0851,-6.0876,-6.0886,-6.0759,-6.0758,-6.0757,-6.0757,0,0,-6.0434,-6.0491,-6.0503,-6.0526,-6.0569,-6.0603,-6.0651,-6.0695,-6.0719,-6.0752,-6.0792,-6.0849,-6.0839,-6.0863,-6.0868,-6.09,-6.0958,-6.0883,-6.0884,-6.0897,-6.1034,-6.1043,-6.1054,-6.0954,-6.0956,-6.0958,-6.1031,0,-6.05,-6.0586,-6.0599,-6.0673,-6.0715,-6.0715,-6.0756,-6.0787,-6.0803,-6.0839,-6.0856,-6.0897,-6.088,-6.0895,-6.0926,-6.0944,-6.0986,-6.0939,-6.0991,-6.0993,-6.0983,-6.1067,-6.1077,-6.1145,-6.1041,-6.1042,-6.1044,0,-6.0588,-6.0627,-6.0707,-6.0747,-6.0765,-6.0802,-6.0845,-6.088,-6.0915,-6.0924,-6.0953,-6.0955,-6.1004,-6.0976,-6.1043,-6.1011,-6.1033,-6.1045,-6.1048,-6.1053,-6.1021,-6.1075,-6.1166,-6.1177,-6.1059,-6.1057,-6.1056,0,-6.0633,-6.0705,-6.0762,-6.0782,-6.0829,-6.0856,-6.0876,-6.091,-6.0936,-6.0973,-6.0991,-6.1032,-6.1054,-6.1086,-6.1099,-6.1078,-6.1166,-6.1138,-6.1175,-6.1175,-6.1193,-6.1191,-6.1289,-6.1207,-6.1207,-6.1206,-6.1206,0,-6.0706,-6.0755,-6.0783,-6.0819,-6.0874,-6.0888,-6.0942,-6.0962,-6.0992,-6.103,-6.1032,-6.1068,-6.1083,-6.1121,-6.1132,-6.1186,-6.1196,-6.1205,-6.1207,-6.1205,-6.1204,-6.1219,-6.1215,-6.1209,-6.1209,-6.1208,-6.1208,0,-6.0764,-6.0785,-6.0848,-6.089,-6.0901,-6.094,-6.0974,-6.1008,-6.1025,-6.1074,-6.1086,-6.1112,-6.1157,-6.1174,-6.1228,-6.1235,-6.1299,-6.1297,-6.1288,-6.1288,-6.1324,-6.132,-6.1435,-6.1451,-6.1358,-6.1359,-6.1359,0,-6.0809,-6.0847,-6.0894,-6.0921,-6.0943,-6.0987,-6.1015,-6.1031,-6.106,-6.1104,-6.1133,-6.1179,-6.1216,-6.1288,-6.1311,-6.1353,-6.1352,-6.139,-6.1358,-6.1356,-6.1353,-6.1351,-6.1355,-6.1395,-6.1396,-6.1397,-6.1397,0,-6.0887,-6.0897,-6.0938,-6.0984,-6.1018,-6.1055,-6.109,-6.1111,-6.1133,-6.1165,-6.1213,-6.1242,-6.13,-6.1345,-6.1389,-6.1409,-6.1407,-6.1408,-6.1418,-6.1416,-6.141,-6.1415,-6.1304,-6.1404,-6.1404,-6.1403,-6.1403,-6.1403,-6.0941,-6.0976,-6.1015,-6.1061,-6.109,-6.1123,-6.1158,-6.1181,-6.1221,-6.1271,-6.1277,-6.1329,-6.1364,-6.1423,-6.1445,-6.1485,-6.1475,-6.149,-6.1494,-6.1498,-6.1501,-6.1404,-6.1493,-6.1493,-6.1493,-6.1492,-6.1492,0,-6.102,-6.1045,-6.1088,-6.1139,-6.1176,-6.1174,-6.1213,-6.1243,-6.1289,-6.1323,-6.1361,-6.1417,-6.1462,-6.1489,-6.1534,-6.156,-6.1561,-6.1572,-6.157,-6.1575,-6.1507,-6.1493,-6.1571,-6.1571,-6.1571,-6.1571,-6.1571,-6.1571,-6.1065,-6.1124,-6.1139,-6.1212,-6.1237,-6.129,-6.1312,-6.1343,-6.1371,-6.1434,-6.1472,-6.149,-6.1522,-6.1569,-6.161,-6.1617,-6.1633,-6.1646,-6.1651,-6.1587,-6.1579,-6.1571,-6.1559,-6.1649,-6.1649,-6.1716,-6.1717,-6.1717]}]]